Location: Qazi Observatory
(41.6337°N, 88.1517°W)
Time: 21:13:44
(UTC-05:00)

Amateur Radio Satellites - All Passes

Search period start: 23 March 2017 20:43
Search period end: 24 March 2017 20:43
Location: Qazi Observatory, 41.6337°N, 88.1517°W

Satellite Date Start Highest point End Downlink Frequencies (MHz)
Time Altitude Azimuth
YUBILEINY 23 Mar 20:48:33 20:56:16 37° 275° (W) 21:03:58 435.215
Oscar 11 23 Mar 21:00:14 21:04:34 88° 77° (ENE) 21:08:54 .
ZACube-1 23 Mar 21:01:19 21:05:53 71° 259° (WSW) 21:10:25 437.345
ISS 23 Mar 21:16:52 21:19:05 17° 132° (SE) 21:21:20 437.550
AAUSAT CUBESAT 2 23 Mar 21:27:02 21:29:48 18° 267° (W) 21:32:36 437.432
Tancredo 1 23 Mar 21:30:49 21:33:30 26° 135° (SE) 21:36:13 437.200
AO-73 23 Mar 21:32:10 21:36:23 36° 263° (W) 21:40:33 145.935
AO-85 23 Mar 21:34:28 21:38:41 42° 118° (ESE) 21:42:38 145.980
DELFI C3 23 Mar 21:38:55 21:42:48 72° 76° (ENE) 21:46:43 145.870
PCSat 23 Mar 21:42:30 21:44:18 12° 258° (WSW) 21:46:07 145.827
STRAND 1 23 Mar 21:47:35 21:51:02 19° 298° (WNW) 21:54:28 437.568
UWE-3 23 Mar 21:51:53 21:54:19 14° 270° (W) 21:56:45 435.000/436.395/437.385
TIGRISAT 23 Mar 22:19:35 22:23:15 25° 94° (E) 22:26:50 435.000
RS-15 23 Mar 22:27:12 22:39:37 81° 56° (NE) 22:51:25 29.354- 29.394
UNISAT 6 23 Mar 22:28:29 22:32:32 34° 96° (E) 22:36:29 437.425
BEESAT 3 23 Mar 22:37:06 22:39:38 17° 111° (ESE) 22:42:14 437.485
LO-87 23 Mar 22:38:03 22:41:22 37° 72° (ENE) 22:44:44 145.935 - 145.965
PRISM 23 Mar 22:38:32 22:42:43 89° 275° (W) 22:46:53 437.425
FO-29 23 Mar 22:40:21 22:45:33 28° 92° (E) 22:50:17 435.910
SO-50 23 Mar 22:45:23 22:46:42 11° 34° (NE) 22:48:01 436.795
ESTCUBE 1 23 Mar 22:49:52 22:53:48 31° 69° (ENE) 22:57:45 437.505/2401.250
ISS 23 Mar 22:52:04 22:55:17 55° 329° (NNW) 22:58:32 437.550
Tancredo 1 23 Mar 23:06:33 23:09:33 37° 332° (NNW) 23:12:34 437.200
AO-85 23 Mar 23:15:47 23:19:12 22° 313° (NW) 23:22:28 145.980
AIST 2D 23 Mar 23:30:00 23:32:32 19° 94° (E) 23:35:04 435.315
NANOSAT C BR1 23 Mar 23:36:34 23:38:33 13° 91° (E) 23:40:31 145.865
EO-79 23 Mar 23:38:39 23:41:10 15° 92° (E) 23:43:39 145.935-145.965
SPROUT 23 Mar 23:47:56 23:51:47 33° 70° (ENE) 23:55:40 437.525
50 SAT 23 Mar 23:51:03 23:53:46 22° 69° (ENE) 23:56:31 437.505
TIGRISAT 23 Mar 23:56:03 23:59:56 30° 291° (WNW) 00:03:42 435.000
DX 1 24 Mar 00:03:51 00:07:25 25° 67° (ENE) 00:11:00 434.975-435.025
POLYITAN 1 24 Mar 00:04:49 00:08:34 30° 96° (E) 00:12:16 437.675
UNISAT 6 24 Mar 00:05:34 00:09:02 23° 294° (WNW) 00:12:27 437.425
QB50P2 24 Mar 00:09:09 00:13:05 36° 98° (E) 00:16:58 145.880/145.840
BEESAT 3 24 Mar 00:13:10 00:16:54 42° 308° (NW) 00:20:43 437.485
LO-87 24 Mar 00:13:15 00:15:00 13° 268° (W) 00:16:45 145.935 - 145.965
VELOX 1 24 Mar 00:15:31 00:19:55 81° 74° (ENE) 00:24:21 145.980
BEESAT 2 24 Mar 00:21:26 00:25:23 87° 297° (WNW) 00:29:26 435.950
SO-50 24 Mar 00:23:37 00:28:06 62° 54° (NE) 00:32:32 436.795
FO-29 24 Mar 00:25:03 00:30:49 41° 294° (WNW) 00:35:59 435.910
DUCHIFAT 1 24 Mar 00:26:07 00:30:09 42° 99° (E) 00:34:07 145.980
ESTCUBE 1 24 Mar 00:26:56 00:30:36 25° 265° (W) 00:34:17 437.505/2401.250
ISS 24 Mar 00:30:01 00:32:18 17° 348° (NNW) 00:34:35 437.550
RS-15 24 Mar 00:41:06 00:50:42 29° 258° (WSW) 00:59:59 29.354- 29.394
Tancredo 1 24 Mar 00:44:26 00:46:23 15° 352° (N) 00:48:19 437.200
UKube-1 24 Mar 00:49:30 00:53:42 55° 73° (ENE) 00:57:56 .
BUGSAT 1 24 Mar 00:55:06 00:58:48 29° 96° (E) 01:02:25 437.445
AIST 2D 24 Mar 01:02:53 01:05:44 24° 290° (WNW) 01:08:35 435.315
Oscar 19 24 Mar 01:07:44 01:10:22 14° 90° (E) 01:12:58 437.125/150
NANOSAT C BR1 24 Mar 01:10:27 01:14:35 53° 287° (WNW) 01:18:41 145.865
EO-79 24 Mar 01:13:06 01:17:10 45° 288° (WNW) 01:21:11 145.935-145.965
BEESAT 24 Mar 01:23:35 01:25:02 11° 59° (ENE) 01:26:30 436.000
50 SAT 24 Mar 01:24:09 01:26:46 20° 265° (W) 01:29:23 437.505
SPROUT 24 Mar 01:24:28 01:27:45 21° 266° (W) 01:31:05 437.525
ITUPSAT 1 24 Mar 01:36:20 01:39:02 15° 61° (ENE) 01:41:43 437.325
DX 1 24 Mar 01:39:42 01:43:29 29° 263° (W) 01:47:18 434.975-435.025
POLYITAN 1 24 Mar 01:40:48 01:44:12 24° 293° (WNW) 01:47:34 437.675
QB50P2 24 Mar 01:45:31 01:48:37 20° 294° (WNW) 01:51:42 145.880/145.840
BEESAT 2 24 Mar 02:02:16 02:03:48 12° 322° (NW) 02:05:22 435.950
DUCHIFAT 1 24 Mar 02:02:43 02:05:28 17° 295° (WNW) 02:08:13 145.980
SO-50 24 Mar 02:05:35 02:08:02 15° 251° (WSW) 02:10:28 436.795
MOZHAYETS 4 24 Mar 02:07:16 02:08:50 12° 61° (ENE) 02:10:22
ISS 24 Mar 02:07:38 02:09:44 16° 8° (N) 02:11:50 437.550
Tancredo 1 24 Mar 02:21:20 02:23:29 16° 12° (NNE) 02:25:39 437.200
UKube-1 24 Mar 02:28:02 02:30:04 13° 269° (W) 02:32:06 .
BUGSAT 1 24 Mar 02:30:39 02:34:00 23° 293° (WNW) 02:37:18 437.445
Gurwin Techsat 1B 24 Mar 02:35:14 02:40:28 54° 100° (E) 02:45:39 435.225
Oscar 19 24 Mar 02:45:01 02:50:10 71° 286° (WNW) 02:55:19 437.125/150
ITAMSAT 1 24 Mar 02:49:06 02:50:33 11° 89° (E) 02:51:58 435.822/435.867
BEESAT 24 Mar 02:57:18 03:02:05 88° 253° (WSW) 03:06:54 436.000
AO-7 24 Mar 03:10:09 03:16:02 21° 92° (E) 03:21:53 .
O/OREOS (USA 219) 24 Mar 03:10:47 03:15:14 46° 63° (ENE) 03:19:39 437.305
ITUPSAT 1 24 Mar 03:11:33 03:16:19 65° 258° (WSW) 03:21:06 437.325
MOZHAYETS 4 24 Mar 03:40:43 03:45:19 80° 258° (WSW) 03:49:56
ISS 24 Mar 03:43:45 03:46:53 38° 27° (NNE) 03:50:01 437.550
KKS-1 24 Mar 03:44:23 03:48:05 26° 67° (ENE) 03:51:48 437.445
Tancredo 1 24 Mar 03:57:01 04:00:11 53° 31° (NNE) 04:03:20 437.200
Gurwin Techsat 1B 24 Mar 04:16:07 04:19:59 21° 297° (WNW) 04:23:51 435.225
CUBESAT XI-V 24 Mar 04:25:10 04:29:34 49° 72° (ENE) 04:34:01 437.345
ITAMSAT 1 24 Mar 04:25:25 04:30:40 86° 285° (WNW) 04:35:50 435.822/435.867
STARS 24 Mar 04:28:29 04:32:27 33° 69° (ENE) 04:36:27 437.465
O/OREOS (USA 219) 24 Mar 04:51:09 04:54:15 18° 260° (W) 04:57:20 437.305
AO-7 24 Mar 05:01:19 05:09:39 82° 290° (WNW) 05:17:56 .
ISS 24 Mar 05:20:25 05:23:16 27° 225° (SW) 05:26:06 437.550
KKS-1 24 Mar 05:20:36 05:24:30 30° 263° (W) 05:28:28 437.445
Tancredo 1 24 Mar 05:33:50 05:36:04 17° 228° (SW) 05:38:18 437.200
M-CUBED/EXP-1 PRIME 24 Mar 05:47:37 05:51:07 53° 68° (ENE) 05:54:58 437.505
STRAND 1 24 Mar 05:48:22 05:49:57 11° 58° (ENE) 05:51:32 437.568
CUTE-I 24 Mar 05:56:13 05:58:51 14° 89° (E) 06:01:28 437.470
CUBESAT XI-V 24 Mar 06:04:20 06:07:13 16° 269° (W) 06:10:06 437.345
AO-85 24 Mar 06:05:20 06:08:58 35° 51° (NE) 06:12:40 145.980
STARS 24 Mar 06:05:21 06:08:50 23° 265° (W) 06:12:21 437.465
LilacSat-2 24 Mar 06:06:30 06:08:42 15° 92° (E) 06:10:55 437.200
ITAMSAT 1 24 Mar 06:07:27 06:09:18 12° 303° (WNW) 06:11:09 435.822/435.867
XW-2F 24 Mar 06:10:16 06:12:30 15° 92° (E) 06:14:44 145.980 - 146.000
XW-2D 24 Mar 06:33:28 06:36:50 31° 97° (E) 06:40:11 145.860 - 145.880
XW-2B 24 Mar 06:39:15 06:42:43 35° 98° (E) 06:46:10 145.730 - 145.750
DOVE 4 24 Mar 06:42:22 06:47:38 60° 100° (E) 06:52:49 437.250
NUDT-PHONESAT 24 Mar 06:43:15 06:46:35 31° 97° (E) 06:49:52 437.300
KAITUO 1B 24 Mar 06:46:51 06:50:16 35° 98° (E) 06:53:39 145.475/437.950
XW-2C 24 Mar 06:49:10 06:52:50 48° 100° (E) 06:56:26 145.795 - 145.815
BEESAT 3 24 Mar 06:53:11 06:55:28 14° 41° (NE) 06:57:44 437.485
AO-7 24 Mar 06:55:43 07:01:12 20° 310° (NW) 07:06:42 .
STRAND 1 24 Mar 07:23:08 07:28:17 84° 76° (ENE) 07:33:28 437.568
M-CUBED/EXP-1 PRIME 24 Mar 07:25:24 07:26:02 10° 266° (W) 07:26:42 437.505
CUTE-I 24 Mar 07:34:06 07:39:28 75° 286° (WNW) 07:44:47 437.470
XW-2A 24 Mar 07:39:25 07:42:14 24° 96° (E) 07:45:00 145.665 - 145.685
LilacSat-2 24 Mar 07:39:40 07:43:08 35° 288° (WNW) 07:46:34 437.200
SEEDS 24 Mar 07:40:28 07:42:49 15° 91° (E) 07:45:08 437.485
CUTE 1.7 + AOD 2 24 Mar 07:41:10 07:44:32 23° 94° (E) 07:47:53 437.475
XW-2F 24 Mar 07:43:22 07:46:47 34° 288° (WNW) 07:50:10 145.980 - 146.000
AO-85 24 Mar 07:46:12 07:49:08 20° 247° (WSW) 07:52:08 145.980
YUBILEINY 24 Mar 07:52:12 08:00:38 55° 90° (E) 08:09:02 435.215
NO-84 24 Mar 07:57:29 08:00:18 58° 136° (SE) 08:03:07 435.350 FM
HO-68 24 Mar 08:01:46 08:08:35 45° 99° (E) 08:15:23 435.675
UWE-3 24 Mar 08:04:59 08:06:16 11° 89° (E) 08:07:32 435.000/436.395/437.385
XW-2D 24 Mar 08:08:15 08:10:48 18° 293° (WNW) 08:13:21 145.860 - 145.880
XW-2B 24 Mar 08:14:19 08:16:38 16° 294° (WNW) 08:18:56 145.730 - 145.750
NUDT-PHONESAT 24 Mar 08:17:50 08:20:16 17° 293° (WNW) 08:22:40 437.300
DOVE 4 24 Mar 08:21:08 08:24:47 19° 297° (WNW) 08:28:26 437.250
KAITUO 1B 24 Mar 08:21:46 08:24:00 15° 294° (WNW) 08:26:13 145.475/437.950
XW-2C 24 Mar 08:25:04 08:26:35 12° 295° (WNW) 08:28:07 145.795 - 145.815
BEESAT 3 24 Mar 08:29:31 08:33:32 71° 240° (WSW) 08:37:30 437.485
CUBEBUG 2 24 Mar 08:30:33 08:34:41 36° 97° (E) 08:38:39 437.445
BEESAT 2 24 Mar 08:38:56 08:42:57 57° 55° (NE) 08:46:55 435.950
Oscar 11 24 Mar 08:48:25 08:51:03 16° 92° (E) 08:53:40 .
ZACube-1 24 Mar 08:50:21 08:53:34 21° 93° (E) 08:56:44 437.345
FO-29 24 Mar 08:52:32 08:57:40 20° 58° (ENE) 09:02:36 435.910
PCSat 24 Mar 08:59:57 09:00:41 10° 101° (E) 09:01:24 145.827
STRAND 1 24 Mar 09:06:28 09:08:05 11° 271° (W) 09:09:42 437.568
AAUSAT CUBESAT 2 24 Mar 09:07:07 09:11:15 69° 101° (E) 09:15:23 437.432
XW-2A 24 Mar 09:12:28 09:14:51 18° 292° (WNW) 09:17:12 145.665 - 145.685
SEEDS 24 Mar 09:14:44 09:18:44 46° 287° (WNW) 09:22:45 437.485
CUTE 1.7 + AOD 2 24 Mar 09:16:42 09:20:22 30° 290° (WNW) 09:24:02 437.475
CUTE-I 24 Mar 09:17:24 09:18:33 11° 304° (NW) 09:19:43 437.470
TIGRISAT 24 Mar 09:18:05 09:21:54 25° 67° (ENE) 09:25:42 435.000
AO-73 24 Mar 09:19:48 09:23:48 40° 97° (E) 09:27:42 145.935
UNISAT 6 24 Mar 09:26:59 09:31:09 32° 69° (ENE) 09:35:19 437.425
PRISM 24 Mar 09:27:39 09:31:40 64° 74° (ENE) 09:35:43 437.425
NO-84 24 Mar 09:36:16 09:38:06 15° 335° (NNW) 09:39:58 435.350 FM
UWE-3 24 Mar 09:38:52 09:43:11 63° 286° (WNW) 09:47:22 435.000/436.395/437.385
HO-68 24 Mar 09:49:45 09:56:08 37° 297° (WNW) 10:02:32 435.675
YUBILEINY 24 Mar 09:50:06 09:57:47 33° 290° (WNW) 10:05:29 435.215
CUBEBUG 2 24 Mar 10:07:43 10:11:02 21° 294° (WNW) 10:14:15 437.445
BEESAT 2 24 Mar 10:18:19 10:20:14 13° 251° (WSW) 10:22:08 435.950
Oscar 11 24 Mar 10:23:17 10:27:24 45° 288° (WNW) 10:31:30 .
ZACube-1 24 Mar 10:26:06 10:29:55 32° 290° (WNW) 10:33:39 437.345
NANOSAT C BR1 24 Mar 10:29:56 10:31:10 11° 61° (ENE) 10:32:24 145.865
EO-79 24 Mar 10:32:02 10:33:59 13° 63° (ENE) 10:35:56 145.935-145.965
FO-29 24 Mar 10:33:52 10:41:45 86° 74° (ENE) 10:49:16 435.910
PCSat 24 Mar 10:37:44 10:43:10 82° 115° (ESE) 10:48:36 145.827
AAUSAT CUBESAT 2 24 Mar 10:45:01 10:46:09 11° 298° (WNW) 10:47:16 437.432
DELFI C3 24 Mar 10:50:18 10:54:16 70° 285° (WNW) 10:58:13 145.870
TIGRISAT 24 Mar 10:54:06 10:58:23 35° 263° (W) 11:02:41 435.000
AO-73 24 Mar 10:56:52 10:59:43 18° 295° (WNW) 11:02:32 145.935
POLYITAN 1 24 Mar 10:57:36 11:01:03 24° 68° (ENE) 11:04:30 437.675
QB50P2 24 Mar 11:01:50 11:05:30 28° 69° (ENE) 11:09:10 145.880/145.840
UNISAT 6 24 Mar 11:03:55 11:07:51 26° 265° (W) 11:11:47 437.425
DUCHIFAT 1 24 Mar 11:17:54 11:21:42 32° 70° (ENE) 11:25:29 145.980
AIST 2D 24 Mar 11:36:29 11:40:01 69° 259° (WSW) 11:43:34 435.315
LO-87 24 Mar 11:37:57 11:41:30 46° 100° (E) 11:45:00 145.935 - 145.965
BUGSAT 1 24 Mar 11:45:02 11:48:19 22° 67° (ENE) 11:51:38 437.445
NANOSAT C BR1 24 Mar 12:02:01 12:06:16 73° 258° (WSW) 12:10:33 145.865
EO-79 24 Mar 12:04:59 12:09:13 62° 259° (W) 12:13:29 145.935-145.965
VELOX 1 24 Mar 12:06:37 12:09:12 15° 92° (E) 12:11:47 145.980
ESTCUBE 1 24 Mar 12:17:58 12:22:28 66° 101° (ESE) 12:26:57 437.505/2401.250
Gurwin Techsat 1B 24 Mar 12:20:32 12:22:37 12° 58° (ENE) 12:24:43 435.225
FO-29 24 Mar 12:22:07 12:27:24 19° 271° (W) 12:32:34 435.910
PCSat 24 Mar 12:23:31 12:27:13 18° 318° (NW) 12:30:56 145.827
Oscar 19 24 Mar 12:24:21 12:28:13 22° 64° (ENE) 12:32:05 437.125/150
POLYITAN 1 24 Mar 12:32:55 12:36:42 30° 264° (W) 12:40:30 437.675
QB50P2 24 Mar 12:37:42 12:41:14 25° 265° (W) 12:44:49 145.880/145.840
50 SAT 24 Mar 12:47:37 12:50:28 23° 96° (E) 12:53:19 437.505
RS-15 24 Mar 12:49:35 13:00:55 53° 111° (ESE) 13:12:37 29.354- 29.394
DUCHIFAT 1 24 Mar 12:54:05 12:57:24 22° 266° (W) 13:00:42 145.980
NO-84 24 Mar 12:54:43 12:55:39 11° 19° (NNE) 12:56:36 435.350 FM
SPROUT 24 Mar 13:08:39 13:12:56 63° 101° (E) 13:17:09 437.525
LO-87 24 Mar 13:13:03 13:14:31 12° 295° (WNW) 13:16:00 145.935 - 145.965
BUGSAT 1 24 Mar 13:19:42 13:23:29 32° 263° (W) 13:27:20 437.445
DX 1 24 Mar 13:26:53 13:31:07 44° 99° (E) 13:35:18 434.975-435.025
VELOX 1 24 Mar 13:41:36 13:45:56 51° 288° (WNW) 13:50:15 145.980
Gurwin Techsat 1B 24 Mar 13:56:25 14:01:45 87° 75° (ENE) 14:07:06 435.225
ESTCUBE 1 24 Mar 13:56:36 13:58:43 13° 298° (WNW) 14:00:50 437.505/2401.250
Oscar 19 24 Mar 14:02:17 14:07:12 47° 261° (W) 14:12:08 437.125/150
ITAMSAT 1 24 Mar 14:06:01 14:09:44 20° 62° (ENE) 14:13:27 435.822/435.867
AO-7 24 Mar 14:09:13 14:16:18 33° 57° (ENE) 14:23:23 .
UKube-1 24 Mar 14:11:57 14:16:18 82° 285° (WNW) 14:20:38 .
50 SAT 24 Mar 14:20:46 14:23:24 20° 292° (WNW) 14:26:02 437.505
NO-84 24 Mar 14:30:42 14:33:49 46° 38° (NE) 14:37:13 435.350 FM
SO-50 24 Mar 14:39:07 14:42:21 19° 111° (ESE) 14:45:35 436.795
SPROUT 24 Mar 14:46:24 14:48:18 13° 298° (WNW) 14:50:12 437.525
BEESAT 24 Mar 14:57:49 15:01:35 23° 94° (E) 15:05:18 436.000
RS-15 24 Mar 15:01:44 15:13:29 54° 314° (NW) 15:25:36 29.354- 29.394
DX 1 24 Mar 15:03:59 15:06:57 18° 296° (WNW) 15:09:54 434.975-435.025
ITUPSAT 1 24 Mar 15:12:04 15:16:17 31° 96° (E) 15:20:28 437.325
MOZHAYETS 4 24 Mar 15:36:04 15:39:42 23° 94° (E) 15:43:18
Gurwin Techsat 1B 24 Mar 15:40:43 15:42:21 11° 272° (W) 15:44:00 435.225
ITAMSAT 1 24 Mar 15:43:39 15:48:46 55° 259° (W) 15:53:55 435.822/435.867
AO-7 24 Mar 16:00:23 16:08:35 61° 256° (WSW) 16:16:50 .
NO-84 24 Mar 16:08:48 16:11:12 18° 231° (SW) 16:13:44 435.350 FM
SO-50 24 Mar 16:17:55 16:22:27 51° 307° (NW) 16:26:56 436.795
CUBESAT XI-V 24 Mar 16:23:20 16:25:08 12° 89° (E) 16:26:55 437.345
BEESAT 24 Mar 16:35:04 16:39:27 38° 291° (WNW) 16:43:49 436.000
ITUPSAT 1 24 Mar 16:49:57 16:54:01 28° 293° (WNW) 16:58:03 437.325
KKS-1 24 Mar 17:10:35 17:14:57 49° 100° (E) 17:19:16 437.445
MOZHAYETS 4 24 Mar 17:12:48 17:16:55 34° 290° (WNW) 17:21:00
XW-2D 24 Mar 17:15:39 17:18:09 17° 67° (ENE) 17:20:38 145.860 - 145.880
CUTE-I 24 Mar 17:17:29 17:21:45 25° 64° (ENE) 17:26:02 437.470
RS-15 24 Mar 17:20:05 17:29:47 26° 346° (NNW) 17:39:32 29.354- 29.394
XW-2B 24 Mar 17:21:16 17:23:59 19° 68° (ENE) 17:26:42 145.730 - 145.750
O/OREOS (USA 219) 24 Mar 17:23:05 17:27:26 51° 108° (ESE) 17:31:52 437.305
NUDT-PHONESAT 24 Mar 17:23:40 17:26:02 16° 67° (ENE) 17:28:24 437.300
KAITUO 1B 24 Mar 17:27:45 17:30:21 18° 68° (ENE) 17:32:56 145.475/437.950
XW-2C 24 Mar 17:30:52 17:33:59 24° 70° (ENE) 17:37:07 145.795 - 145.815
PCSat 24 Mar 17:43:46 17:46:26 13° 38° (NE) 17:49:03 145.827
DOVE 4 24 Mar 17:47:43 17:52:13 56° 73° (ENE) 17:57:03 437.250
STARS 24 Mar 17:53:13 17:57:37 62° 102° (ESE) 18:01:58 437.465
CUBESAT XI-V 24 Mar 17:58:19 18:02:57 68° 285° (WNW) 18:07:34 437.345
YUBILEINY 24 Mar 18:02:28 18:09:35 27° 67° (ENE) 18:16:40 435.215
LilacSat-2 24 Mar 18:20:56 18:24:46 76° 258° (WSW) 18:28:37 437.200
XW-2F 24 Mar 18:23:42 18:27:29 76° 258° (WSW) 18:31:17 145.980 - 146.000
HO-68 24 Mar 18:30:52 18:37:09 35° 62° (ENE) 18:43:27 435.675
SEEDS 24 Mar 18:33:49 18:34:59 11° 62° (ENE) 18:36:10 437.485
CUTE 1.7 + AOD 2 24 Mar 18:34:33 18:37:21 18° 66° (ENE) 18:40:09 437.475
KKS-1 24 Mar 18:48:11 18:51:06 17° 296° (WNW) 18:54:00 437.445
XW-2D 24 Mar 18:48:35 18:52:05 34° 263° (W) 18:55:34 145.860 - 145.880
XW-2B 24 Mar 18:54:36 18:57:59 30° 263° (W) 19:01:22 145.730 - 145.750
NUDT-PHONESAT 24 Mar 18:56:13 18:59:41 34° 263° (W) 19:03:08 437.300
CUTE-I 24 Mar 18:56:23 19:01:30 45° 261° (W) 19:06:40 437.470
M-CUBED/EXP-1 PRIME 24 Mar 18:59:31 19:03:56 43° 104° (ESE) 19:08:23 437.505
KAITUO 1B 24 Mar 19:00:48 19:04:09 30° 263° (W) 19:07:30 145.475/437.950
UWE-3 24 Mar 19:02:13 19:03:52 12° 61° (ENE) 19:05:32 435.000/436.395/437.385
O/OREOS (USA 219) 24 Mar 19:04:03 19:07:10 18° 306° (NW) 19:10:19 437.305
XW-2C 24 Mar 19:05:04 19:08:08 23° 265° (W) 19:11:12 145.795 - 145.815
PCSat 24 Mar 19:25:26 19:30:53 68° 59° (ENE) 19:36:16 145.827
DOVE 4 24 Mar 19:27:41 19:30:21 15° 271° (W) 19:33:08 437.250
CUBEBUG 2 24 Mar 19:28:08 19:32:24 34° 70° (ENE) 19:36:40 437.445
STARS 24 Mar 19:31:13 19:33:26 14° 298° (WNW) 19:35:37 437.465
STRAND 1 24 Mar 19:33:57 19:38:18 28° 95° (E) 19:42:37 437.568
RS-15 24 Mar 19:37:41 19:47:56 28° 22° (NNE) 19:57:56 29.354- 29.394
XW-2A 24 Mar 19:42:46 19:46:09 52° 260° (W) 19:49:32 145.665 - 145.685
Oscar 11 24 Mar 19:44:09 19:46:17 14° 63° (ENE) 19:48:23 .
ZACube-1 24 Mar 19:46:15 19:49:29 19° 66° (ENE) 19:52:41 437.345
AAUSAT CUBESAT 2 24 Mar 19:57:10 20:01:03 44° 73° (ENE) 20:04:58 437.432
YUBILEINY 24 Mar 19:58:29 20:07:05 67° 267° (W) 20:15:40 435.215
SEEDS 24 Mar 20:05:57 20:10:06 68° 258° (WSW) 20:14:16 437.485
CUTE 1.7 + AOD 2 24 Mar 20:08:54 20:12:52 41° 262° (W) 20:16:52 437.475
AO-73 24 Mar 20:14:58 20:19:03 34° 70° (ENE) 20:23:05 145.935
HO-68 24 Mar 20:17:49 20:24:39 47° 260° (W) 20:31:31 435.675
AO-85 24 Mar 20:22:48 20:23:59 11° 109° (ESE) 20:25:08 145.980
M-CUBED/EXP-1 PRIME 24 Mar 20:34:31 20:38:04 22° 299° (WNW) 20:41:39 437.505
Tancredo 1 24 Mar 20:35:21 20:36:43 12° 130° (SE) 20:38:05 437.200
